Starlink 30120

operational
NORAD ID: 56824 Int'l Des: 2023-079 Owner: SPXS Country: US Constellation: starlink
LEOCIRCULAR

About Starlink 30120

Description loading...

Live Position

Loading 3D Globe...

Upcoming Passes

Altitude History

Altitude vs Time

uPlot chart will show altitude changes over time

Two-Line Element Set

1 56824U 23079B 25305.78897579 .00000627 00000-0 61480-4 0 9999
2 56824 43.0044 82.4517 0001656 264.3542 95.7111 15.02535200133962
Epoch: Nov 1, 2025 • Age: 30 hours

Current Status

Altitude 568.9 km
Velocity 7.58 km/s
Sub-Earth Point -36.87°S, 104.57°W
Launch Date Jun 4, 2023
Age 2.4 years
Type internet

Technical Details

Classification Payload
Mass 730.00 kg
Dry Mass 700.00 kg
Total Mass 730.00 kg
Length 0.30 m
Diameter 4.10 m
Span 29.00 m
Shape Box + pan
Manufacturer SPXS
Bus Type Starlink V2M
Phase Status In Orbit
Owner/State SPXS/US

Large Constellations

Loading constellations...